Date String (YYYY-MM-DD hh:mm:ss) UTC,Instrument flags,Ambient pressure (hPa),Sample flow (lpm),Bypass flow (lpm),Sample temperature (°C),Ambient temperature (°C),ASC tube jacket temperature (°C),LED temperature (°C),Box temperature (°C),Sample RH (%),Span deviation,Mass concentration (μg/m³),Mass concentration (μg/m³),Mass concentration (μg/m³)
DateTimeUTC,F1_M11,P_M11,Q1_M11,Q2_M11,T1_M11,T2_M11,T3_M11,T4_M11,T5_M11,U1_M11,ZSPAN_M11,X2_M11,X0_M11,X1_M11
2021-11-07 20:00:00,,0823.1,5.00,0.00,29.5,27.1,00.0,38.5,31.1,06.3,0000.0,0001.23,0008.67,0000.90
2021-11-07 20:01:00,,0823.1,5.00,0.00,29.5,27.5,00.0,38.5,31.2,06.1,0000.0,0001.27,0008.03,0000.90
2021-11-07 20:02:00,,0823.2,5.00,0.00,29.5,27.9,00.0,38.5,31.3,05.9,0000.0,0001.24,0007.76,0000.88
2021-11-07 20:03:00,,0823.2,4.99,0.00,29.6,28.2,00.0,38.5,31.4,06.0,0000.0,0001.24,0007.77,0000.87
2021-11-07 20:04:00,,0823.2,5.01,0.00,29.6,28.4,00.0,38.5,31.4,05.9,0000.0,0001.24,0007.73,0000.86
2021-11-07 20:05:00,,0823.2,5.00,0.00,29.7,28.6,00.0,38.5,31.5,05.8,0000.0,0001.23,0007.47,0000.83
2021-11-07 20:06:00,,0823.3,5.01,0.00,29.7,28.7,00.0,38.6,31.5,05.8,0000.0,0001.22,0005.90,0000.81
2021-11-07 20:07:00,,0823.2,5.00,0.00,29.8,28.8,00.0,38.6,31.6,05.9,0000.0,0001.21,0005.85,0000.80
2021-11-07 20:08:00,,0823.2,5.01,0.00,29.8,29.0,00.0,38.6,31.7,05.9,0000.0,0001.23,0005.87,0000.78
2021-11-07 20:09:00,,0823.1,5.00,0.00,29.8,29.0,00.0,38.6,31.7,05.8,0000.0,0001.21,0005.63,0000.75
2021-11-07 20:10:00,,0823.2,4.98,0.00,29.9,28.1,00.0,38.7,31.5,05.8,0000.0,0001.21,0004.48,0000.72
2021-11-07 20:11:00,,0823.2,5.01,0.00,29.7,26.2,00.0,38.6,31.1,05.8,0000.0,0001.25,0005.10,0000.69
2021-11-07 20:12:00,,0823.2,4.99,0.00,29.6,26.0,00.0,38.6,31.0,05.8,0000.0,0001.22,0005.13,0000.65
2021-11-07 20:13:00,,0823.2,5.01,0.00,29.5,26.4,00.0,38.6,31.0,05.9,0000.0,0001.20,0006.10,0000.63
2021-11-07 20:14:00,,0823.2,5.01,0.00,29.5,26.9,00.0,38.5,31.0,05.9,0000.0,0001.22,0006.50,0000.62
2021-11-07 20:15:00,,0823.2,4.99,0.00,29.5,27.3,00.0,38.5,31.1,05.7,0000.0,0001.18,0006.75,0000.60
2021-11-07 20:16:00,,0823.2,5.01,0.00,29.5,27.7,00.0,38.5,31.2,05.7,0000.0,0001.16,0006.86,0000.59
2021-11-07 20:17:00,,0823.1,4.99,0.00,29.5,28.0,00.0,38.5,31.3,05.7,0000.0,0001.13,0006.74,0000.58
2021-11-07 20:18:00,,0823.1,5.00,0.00,29.6,28.2,00.0,38.5,31.3,05.8,0000.0,0001.10,0005.64,0000.56
2021-11-07 20:19:00,,0823.1,5.00,0.00,29.6,28.4,00.0,38.5,31.4,05.8,0000.0,0001.05,0005.48,0000.55
2021-11-07 20:20:00,,0823.1,5.00,0.00,29.6,28.6,00.0,38.5,31.5,05.6,0000.0,0001.02,0006.93,0000.54
2021-11-07 20:21:00,,0823.2,5.00,0.00,29.7,28.7,00.0,38.5,31.5,05.5,0000.0,0000.98,0007.03,0000.54
2021-11-07 20:22:00,,0823.1,5.01,0.00,29.7,28.8,00.0,38.6,31.5,05.6,0000.0,0000.89,0006.44,0000.54
2021-11-07 20:23:00,,0823.1,5.00,0.00,29.8,28.9,00.0,38.6,31.6,05.7,0000.0,0000.83,0007.31,0000.54
2021-11-07 20:24:00,,0823.2,5.01,0.00,29.8,29.0,00.0,38.6,31.7,05.9,0000.0,0000.83,0006.37,0000.55
2021-11-07 20:25:00,,0823.2,5.00,0.00,29.9,29.1,00.0,38.7,31.7,05.7,0000.0,0000.78,0005.82,0000.55
2021-11-07 20:26:00,,0823.2,5.00,0.00,29.9,28.1,00.0,38.7,31.5,05.6,0000.0,0000.78,0005.45,0000.55
2021-11-07 20:27:00,,0823.3,5.01,0.00,29.7,26.2,00.0,38.7,31.1,05.6,0000.0,0000.79,0005.41,0000.56
2021-11-07 20:28:00,,0823.2,5.01,0.00,29.6,26.0,00.0,38.6,31.1,05.6,0000.0,0000.78,0005.42,0000.56
2021-11-07 20:29:00,,0823.2,4.99,0.00,29.6,26.4,00.0,38.6,31.1,05.7,0000.0,0000.77,0005.38,0000.57
2021-11-07 20:30:00,,0823.2,5.00,0.00,29.5,26.8,00.0,38.5,31.1,05.9,0000.0,0000.77,0005.00,0000.57
2021-11-07 20:31:00,,0823.2,5.00,0.00,29.5,27.3,00.0,38.5,31.1,05.9,0000.0,0000.77,0004.59,0000.56
2021-11-07 20:32:00,,0823.2,5.00,0.00,29.5,27.7,00.0,38.5,31.2,05.9,0000.0,0000.80,0004.35,0000.56
2021-11-07 20:33:00,,0823.1,5.01,0.00,29.6,28.0,00.0,38.5,31.3,06.0,0000.0,0000.83,0004.47,0000.56
2021-11-07 20:34:00,,0823.1,5.01,0.00,29.6,28.2,00.0,38.5,31.3,06.0,0000.0,0000.87,0004.75,0000.57
2021-11-07 20:35:00,,0823.2,5.00,0.00,29.6,28.4,00.0,38.5,31.4,06.0,0000.0,0000.90,0006.32,0000.58
2021-11-07 20:36:00,,0823.1,5.01,0.00,29.7,28.6,00.0,38.5,31.5,05.8,0000.0,0000.95,0008.19,0000.59
2021-11-07 20:37:00,,0823.2,5.01,0.00,29.7,28.7,00.0,38.6,31.5,05.6,0000.0,0000.98,0008.36,0000.59
2021-11-07 20:38:00,,0823.2,5.00,0.00,29.7,28.8,00.0,38.6,31.6,05.7,0000.0,0001.03,0008.39,0000.59
2021-11-07 20:39:00,,0823.2,5.01,0.00,29.8,28.9,00.0,38.6,31.6,05.6,0000.0,0001.05,0008.42,0000.58
2021-11-07 20:40:00,,0823.2,5.00,0.00,29.8,29.0,00.0,38.6,31.7,05.6,0000.0,0001.06,0008.46,0000.58
2021-11-07 20:41:00,,0823.2,4.98,0.00,29.9,29.1,00.0,38.7,31.7,05.6,0000.0,0001.10,0009.30,0000.58
2021-11-07 20:42:00,,0823.2,5.01,0.00,29.9,28.9,00.0,38.7,31.7,05.5,0000.0,0001.09,0009.07,0000.58
2021-11-07 20:43:00,,0823.2,5.00,0.00,29.8,27.1,00.0,38.7,31.3,05.5,0000.0,0001.06,0009.00,0000.57
2021-11-07 20:44:00,,0823.2,4.99,0.00,29.7,25.8,00.0,38.7,31.0,05.8,0000.0,0001.03,0008.85,0000.56
2021-11-07 20:45:00,,0823.2,5.00,0.00,29.6,26.1,00.0,38.6,31.1,06.1,0000.0,0000.98,0008.24,0000.56
2021-11-07 20:46:00,,0823.2,4.99,0.00,29.5,26.5,00.0,38.6,31.1,05.9,0000.0,0000.94,0007.29,0000.55
2021-11-07 20:47:00,,0823.2,5.00,0.00,29.5,27.0,00.0,38.6,31.1,05.8,0000.0,0000.88,0004.74,0000.54
2021-11-07 20:48:00,,0823.2,5.00,0.00,29.5,27.4,00.0,38.5,31.2,06.0,0000.0,0000.84,0004.07,0000.54
2021-11-07 20:49:00,,0823.3,5.01,0.00,29.5,27.8,00.0,38.5,31.2,06.1,0000.0,0000.80,0004.41,0000.53
2021-11-07 20:50:00,,0823.2,5.00,0.00,29.6,28.1,00.0,38.5,31.3,06.1,0000.0,0000.76,0004.51,0000.54
2021-11-07 20:51:00,,0823.2,4.99,0.00,29.6,28.3,00.0,38.5,31.4,06.1,0000.0,0000.78,0004.61,0000.54
2021-11-07 20:52:00,,0823.2,4.99,0.00,29.6,28.5,00.0,38.5,31.4,06.1,0000.0,0000.75,0003.20,0000.54
2021-11-07 20:53:00,,0823.3,5.00,0.00,29.7,28.6,00.0,38.6,31.5,06.1,0000.0,0000.73,0002.31,0000.55
2021-11-07 20:54:00,,0823.3,5.00,0.00,29.7,28.8,00.0,38.6,31.6,06.0,0000.0,0000.74,0002.32,0000.55
2021-11-07 20:55:00,,0823.3,4.99,0.00,29.8,28.9,00.0,38.6,31.6,05.8,0000.0,0000.75,0002.47,0000.55
2021-11-07 20:56:00,,0823.2,5.00,0.00,29.8,29.0,00.0,38.6,31.7,05.7,0000.0,0000.78,0002.45,0000.56
2021-11-07 20:57:00,,0823.2,5.02,0.00,29.9,28.7,00.0,38.7,31.7,05.8,0000.0,0000.80,0002.61,0000.56
2021-11-07 20:58:00,,0823.2,5.00,0.00,29.8,26.8,00.0,38.7,31.3,05.7,0000.0,0000.82,0002.85,0000.56
2021-11-07 20:59:00,,0823.3,4.99,0.00,29.6,25.8,00.0,38.6,31.0,05.7,0000.0,0000.82,0002.76,0000.56
